Wind_Speed
15 17 21 23 23 26 29 33 35 36 37 37 38 40 39 42 45 50 52 55 57 59 62 65 66 69 70 72 73 74 74 75 75 76 77 77 77 75 74 72 70 60 60 58 56
17 20 23 25 27 28 31 34 36 35 37 38 39 39 43 47 50 53 58 60 61 64 67 70 72 73 74 76 77 79 79 77 79 82 84 84 84 83 81 78 74 66 61 62 59
20 24 26 28 31 31 34 36 38 38 38 39 39 43 48 52 55 60 62 64 68 71 72 74 76 77 76 74 68 60 52 37 41 46 56 71 79 88 89 84 81 75 66 66 64
22 26 29 31 33 36 38 40 38 37 37 39 42 47 52 57 62 63 69 70 71 74 78 79 78 74 65 42 31 33 35 37 36 43 46 48 49 70 85 88 85 83 72 70 69
24 27 31 34 35 37 40 39 37 37 38 40 46 52 57 61 66 69 70 74 80 80 72 61 49 40 21 22 31 36 37 40 41 45 49 52 53 51 66 87 89 88 81 71 73
25 28 33 36 38 39 42 37 35 39 40 45 52 56 60 64 68 73 80 74 64 49 38 30 16 15 20 27 35 40 40 42 46 48 50 54 53 59 43 58 79 87 88 77 75
25 28 33 36 39 41 40 36 37 40 42 49 55 58 64 66 74 78 53 39 36 27 19 22 24 27 31 34 36 39 39 42 45 48 53 56 58 54 46 47 65 79 85 82 77
25 29 34 35 38 41 38 36 38 40 45 52 56 61 64 73 73 46 34 39 38 34 29 29 30 32 35 37 41 39 42 41 43 49 50 52 54 47 48 45 49 70 82 81 79
25 29 33 35 37 38 37 36 38 41 47 53 58 62 70 74 44 37 35 36 36 35 33 33 31 34 36 40 37 35 39 38 39 38 41 46 44 40 43 42 47 54 73 78 80
27 31 33 35 37 36 36 36 38 43 48 54 59 66 71 55 37 36 37 34 33 37 37 35 37 38 40 37 30 33 34 35 36 28 33 38 35 37 40 40 42 46 63 76 81
28 32 34 35 34 34 32 35 38 42 49 55 61 68 63 40 37 35 34 35 39 43 42 40 41 38 41 35 30 27 31 31 28 27 31 31 32 33 37 36 31 40 50 69 79
28 33 32 34 33 31 31 34 40 44 51 56 63 70 52 36 31 34 37 38 40 43 45 43 42 39 38 29 25 25 26 25 20 27 30 21 25 32 34 28 25 31 42 63 77
28 31 32 32 32 31 31 34 40 45 52 58 62 66 46 37 35 37 38 43 44 44 45 44 40 40 31 27 22 21 26 24 25 22 19 24 13 14 21 28 27 22 35 53 74
28 30 32 30 27 28 31 35 41 46 53 58 62 60 42 38 35 39 45 50 48 50 48 42 40 36 23 25 24 21 23 27 24 21 18 19 15 7 17 16 19 22 33 46 70
27 28 28 27 26 27 31 36 42 47 53 58 61 58 46 46 44 44 48 52 52 51 48 38 33 22 22 26 28 28 29 31 26 17 12 15 13 10 8 13 22 17 37 50 68
27 27 27 25 25 28 31 36 42 47 52 55 59 57 41 41 43 45 50 52 51 42 37 34 25 21 22 28 31 33 30 24 19 10 10 8 12 10 12 12 14 19 33 50 66
26 24 25 25 25 27 31 36 42 46 51 54 56 55 50 45 47 51 55 52 52 39 27 27 23 29 26 20 22 26 28 32 25 15 8 8 6 7 12 11 14 16 23 47 64
25 23 25 25 25 27 31 37 41 45 51 53 55 51 43 47 50 56 55 51 46 34 29 30 33 31 28 28 26 25 27 29 24 13 5 5 10 16 15 15 16 18 23 37 59
26 25 24 25 25 27 31 36 41 45 50 53 56 57 43 43 50 56 55 46 44 35 32 34 34 30 27 30 29 28 24 26 22 14 9 14 17 20 17 18 16 8 16 31 53
26 24 26 25 24 25 29 34 40 45 49 52 57 59 51 41 48 53 50 46 44 37 36 35 30 25 24 24 23 28 29 25 26 20 10 7 16 13 17 12 7 8 21 22 48
23 21 23 24 22 23 28 33 39 44 49 51 55 59 50 39 47 50 44 41 41 42 37 33 31 30 29 31 31 29 30 34 33 26 18 12 11 6 16 13 9 21 16 19 39
22 21 23 23 21 22 27 32 38 44 50 52 57 61 42 37 43 40 42 38 43 39 38 37 38 31 27 32 37 39 35 40 38 28 17 16 11 10 15 13 10 20 18 18 33
23 22 24 21 21 21 25 30 36 42 48 54 59 55 30 35 38 37 40 35 39 33 35 35 36 39 33 35 35 35 36 38 38 29 22 17 18 15 15 22 22 24 23 25 36
23 22 23 21 18 19 23 29 35 41 48 53 59 32 27 32 30 38 38 39 37 30 35 37 39 41 38 36 38 46 49 43 43 33 22 28 22 26 29 20 24 25 27 31 38
20 21 19 19 17 18 21 27 33 39 45 51 47 27 28 28 30 34 36 38 34 29 33 38 38 42 41 42 45 47 48 41 43 58 40 43 44 31 28 28 32 30 31 33 40
24 22 19 16 15 15 18 25 31 37 43 49 26 26 25 29 34 33 36 37 34 35 37 32 37 38 39 40 50 50 50 41 35 41 60 45 41 49 33 41 45 37 36 35 38
25 22 19 15 14 14 15 22 28 34 39 36 20 25 22 28 34 37 38 41 36 35 35 36 35 37 41 42 44 48 53 56 51 37 38 49 50 43 52 47 54 49 36 36 37
Wind_Direction
324 321 322 325 327 326 326 321 320 322 320 321 316 309 310 309 308 306 303 299 295 293 291 290 288 286 285 283 282 279 277 274 272 268 264 262 260 256 252 248 250 245 245 243 239
314 316 320 324 322 324 324 320 320 324 323 319 310 313 315 313 310 306 301 299 297 294 291 289 289 288 288 287 286 286 284 282 276 272 266 260 257 254 251 247 245 244 239 242 240
313 317 324 322 322 322 323 324 325 326 321 314 315 317 317 315 312 308 305 303 299 297 294 293 292 292 291 293 293 291 291 286 282 278 272 265 259 251 248 245 242 240 234 235 237
312 317 319 320 322 324 326 326 325 323 320 318 319 320 318 317 314 310 308 306 303 301 299 297 295 295 294 285 276 295 296 291 286 287 285 278 271 253 245 241 238 236 233 230 231
311 314 316 317 321 325 327 328 324 321 321 322 324 322 320 318 315 316 313 310 308 302 300 301 302 299 289 279 294 302 296 297 294 292 287 281 277 269 249 238 234 232 230 225 226
309 314 316 314 319 325 327 325 325 326 326 328 326 324 323 322 321 319 321 313 313 316 316 321 331 323 313 306 301 304 297 291 291 289 283 276 268 265 275 249 232 226 226 222 222
309 312 312 314 319 325 326 326 329 327 330 329 326 328 327 325 326 327 331 353 6 14 7 346 338 327 317 312 304 295 292 288 289 287 279 272 265 260 264 263 235 225 221 219 215
309 311 311 315 321 324 327 330 330 330 332 329 330 331 330 332 331 342 356 353 356 355 349 338 329 320 316 310 304 300 291 296 295 285 275 268 262 252 260 264 249 224 218 216 211
309 310 312 316 321 324 327 330 332 333 333 332 333 334 334 335 339 353 348 343 342 342 339 331 325 319 316 314 312 297 295 308 301 289 278 270 268 250 256 262 248 233 219 213 207
311 308 310 315 322 326 328 331 333 336 334 335 340 338 339 341 348 351 344 341 337 334 329 322 318 315 313 313 306 298 302 316 307 291 274 269 271 253 256 264 255 234 220 211 204
311 306 310 316 325 326 329 334 333 335 338 341 341 341 344 345 352 343 340 337 333 329 325 318 316 315 316 313 307 299 311 321 318 300 289 280 260 251 258 267 262 235 225 211 203
303 305 310 316 325 329 332 336 336 340 339 345 346 343 345 347 338 340 336 331 323 319 319 316 313 314 315 313 307 297 314 321 340 310 304 301 281 260 259 268 266 237 223 211 202
301 304 309 318 324 329 334 334 338 342 343 348 348 347 346 344 339 339 332 329 324 319 318 318 314 320 315 316 312 303 319 328 325 330 306 306 304 281 265 260 259 247 218 213 200
303 304 313 319 326 331 333 335 339 345 346 351 349 350 349 341 341 340 333 330 325 323 322 318 314 317 308 323 325 320 323 321 324 329 345 305 331 304 258 262 254 238 213 211 199
302 307 316 322 329 333 334 337 342 345 349 350 350 352 349 349 342 333 331 327 325 325 326 328 323 319 320 332 331 330 327 318 317 317 332 322 353 308 302 265 255 246 209 202 198
300 308 316 324 331 335 336 338 345 346 352 350 353 356 345 338 336 332 330 332 332 333 331 339 343 344 336 336 337 333 324 325 324 317 325 325 338 337 319 302 285 235 213 202 199
297 306 320 324 330 334 338 339 344 348 347 351 354 355 347 340 336 335 340 342 341 343 344 349 1 354 347 352 336 329 326 346 349 346 352 336 347 352 349 309 276 238 221 201 199
294 302 314 323 326 333 338 340 344 346 346 350 356 353 335 337 339 337 342 350 349 357 0 2 4 359 352 356 4 338 340 344 355 357 73 39 1 337 319 316 263 253 220 205 198
291 301 307 323 325 333 337 340 343 345 345 349 352 353 343 334 338 340 348 356 3 3 9 6 8 2 5 359 353 347 342 348 354 1 343 340 350 328 338 314 275 262 220 209 195
292 302 302 313 324 332 335 339 342 344 345 350 351 351 352 338 338 344 356 3 8 15 15 9 9 15 20 12 353 359 0 352 354 356 3 341 6 2 336 357 346 177 204 192 195
289 302 306 307 322 329 334 339 344 344 344 350 352 349 349 346 345 351 9 10 21 28 25 22 27 33 21 18 23 25 9 359 355 360 358 346 2 17 348 4 129 167 178 199 186
286 295 306 310 320 327 332 340 345 345 343 349 350 349 349 350 350 5 13 19 25 32 37 41 40 34 29 33 28 23 14 7 11 16 41 24 47 66 13 45 149 145 159 177 170
282 292 304 306 315 325 332 340 346 345 345 350 349 351 4 355 1 17 18 20 25 35 44 40 40 40 45 39 30 19 12 20 27 37 58 56 87 36 62 72 96 122 137 144 160
279 289 298 305 314 321 334 341 345 346 348 352 349 9 12 1 20 22 31 29 34 46 54 45 40 43 35 32 38 39 40 53 54 48 74 68 89 80 75 87 88 102 113 131 153
271 288 288 298 310 316 336 341 346 350 351 353 357 36 18 19 32 34 37 37 42 47 51 55 55 50 51 45 45 47 47 62 61 67 73 73 66 56 75 68 81 90 105 130 151
267 285 286 293 303 312 333 341 348 351 355 355 18 38 36 43 42 45 44 46 53 48 51 55 55 53 52 49 55 56 52 55 59 69 69 76 69 65 80 65 74 83 105 123 140
266 273 279 289 296 309 331 343 348 353 358 4 49 39 48 54 54 50 50 51 49 50 55 56 54 58 60 59 58 56 56 56 58 70 67 67 77 70 69 72 78 79 97 119 135
Height
5795 5793 5791 5788 5784 5781 5777 5774 5770 5766 5762 5757 5753 5747 5742 5735 5730 5723 5717 5710 5702 5694 5687 5679 5673 5666 5661 5656 5652 5650 5650 5647 5647 5647 5651 5650 5653 5657 5661 5669 5673 5680 5687 5693 5698
5794 5791 5788 5785 5781 5777 5773 5769 5764 5759 5755 5751 5747 5740 5734 5728 5720 5713 5704 5696 5688 5678 5671 5664 5655 5648 5641 5635 5630 5626 5626 5621 5625 5622 5623 5627 5629 5634 5638 5647 5658 5663 5671 5678 5684
5792 5789 5786 5781 5779 5774 5770 5764 5760 5755 5751 5746 5739 5733 5726 5718 5710 5699 5690 5682 5671 5660 5651 5643 5635 5628 5622 5614 5608 5607 5605 5602 5600 5596 5593 5598 5601 5605 5613 5628 5635 5644 5653 5662 5669
5788 5786 5783 5778 5775 5771 5766 5761 5757 5751 5745 5739 5732 5725 5716 5707 5699 5687 5676 5664 5651 5640 5628 5618 5610 5604 5601 5598 5596 5596 5594 5589 5589 5584 5581 5578 5575 5579 5582 5606 5610 5622 5633 5644 5653
5786 5783 5780 5776 5770 5766 5763 5758 5753 5747 5740 5733 5725 5717 5707 5697 5686 5673 5660 5647 5631 5617 5604 5597 5592 5588 5587 5590 5589 5586 5584 5579 5574 5570 5566 5560 5561 5558 5560 5575 5585 5598 5612 5626 5635
5782 5780 5777 5772 5766 5763 5760 5753 5747 5742 5735 5727 5719 5709 5697 5685 5672 5658 5645 5626 5610 5599 5591 5588 5586 5586 5585 5583 5580 5577 5573 5569 5562 5556 5549 5541 5545 5537 5559 5551 5553 5572 5591 5604 5619
5779 5775 5773 5767 5763 5759 5755 5748 5742 5736 5729 5720 5710 5698 5686 5675 5657 5644 5629 5617 5606 5598 5592 5588 5585 5582 5578 5574 5569 5565 5561 5555 5550 5542 5531 5523 5525 5529 5529 5530 5536 5549 5567 5581 5601
5774 5772 5769 5763 5759 5756 5750 5743 5737 5730 5722 5713 5702 5690 5677 5662 5647 5634 5624 5615 5606 5598 5592 5586 5581 5576 5571 5566 5561 5555 5547 5543 5536 5523 5514 5503 5505 5516 5514 5516 5520 5529 5546 5563 5584
5770 5768 5765 5760 5756 5752 5745 5738 5732 5724 5716 5706 5695 5682 5667 5650 5638 5630 5622 5613 5604 5596 5589 5582 5575 5569 5563 5556 5551 5543 5536 5529 5521 5509 5498 5491 5494 5504 5502 5503 5505 5514 5528 5546 5566
5766 5765 5761 5755 5752 5747 5741 5735 5727 5719 5711 5699 5687 5674 5659 5645 5635 5626 5618 5610 5601 5591 5583 5575 5568 5561 5555 5546 5540 5532 5525 5518 5506 5499 5487 5484 5487 5490 5492 5490 5492 5501 5512 5529 5550
5763 5761 5758 5753 5749 5743 5737 5731 5726 5718 5705 5694 5681 5665 5649 5636 5630 5623 5615 5607 5597 5587 5580 5571 5562 5554 5546 5538 5530 5522 5515 5506 5500 5489 5478 5476 5475 5479 5483 5483 5483 5490 5500 5516 5537
5759 5757 5753 5749 5745 5739 5734 5726 5719 5711 5699 5687 5674 5659 5644 5636 5629 5621 5611 5604 5594 5583 5573 5565 5555 5547 5538 5530 5523 5513 5507 5501 5494 5484 5475 5472 5470 5472 5474 5476 5476 5480 5488 5501 5522
5755 5752 5748 5745 5741 5735 5729 5723 5715 5706 5695 5682 5671 5656 5643 5636 5627 5619 5610 5600 5589 5577 5567 5557 5547 5539 5530 5524 5517 5509 5501 5495 5487 5482 5474 5468 5467 5466 5466 5467 5471 5474 5481 5489 5509
5752 5748 5744 5741 5737 5732 5727 5720 5711 5701 5690 5678 5666 5654 5642 5632 5624 5613 5603 5594 5581 5569 5559 5548 5539 5531 5525 5519 5510 5504 5497 5489 5483 5476 5471 5467 5466 5462 5460 5461 5463 5466 5472 5483 5499
5748 5744 5740 5736 5733 5728 5723 5716 5706 5696 5684 5673 5662 5646 5636 5629 5620 5611 5600 5587 5574 5560 5548 5541 5531 5525 5520 5513 5505 5497 5490 5481 5477 5473 5470 5466 5465 5461 5460 5458 5458 5459 5461 5465 5482
5744 5741 5738 5733 5729 5725 5719 5712 5703 5694 5681 5672 5656 5646 5636 5626 5618 5609 5597 5582 5568 5558 5540 5534 5527 5522 5516 5509 5499 5490 5482 5477 5469 5466 5466 5463 5462 5460 5458 5456 5454 5455 5457 5463 5477
5740 5738 5734 5730 5726 5721 5716 5709 5701 5689 5680 5670 5657 5645 5634 5625 5615 5605 5594 5579 5561 5550 5541 5532 5525 5520 5511 5507 5500 5490 5478 5471 5467 5463 5462 5460 5458 5456 5455 5452 5450 5452 5454 5459 5472
5736 5734 5731 5726 5723 5717 5712 5706 5698 5688 5677 5667 5654 5641 5632 5623 5613 5600 5589 5573 5558 5548 5539 5531 5524 5517 5508 5501 5495 5484 5479 5471 5465 5461 5460 5458 5456 5455 5452 5450 5448 5449 5453 5458 5470
5733 5731 5728 5723 5720 5716 5710 5703 5694 5686 5676 5665 5653 5643 5632 5620 5610 5599 5585 5570 5557 5547 5538 5530 5524 5515 5509 5502 5494 5488 5481 5472 5465 5460 5458 5457 5455 5453 5448 5445 5442 5444 5450 5459 5470
5730 5728 5726 5721 5717 5713 5708 5701 5693 5684 5674 5662 5650 5640 5629 5619 5610 5597 5584 5571 5559 5549 5540 5532 5526 5519 5514 5509 5498 5489 5480 5473 5464 5459 5456 5454 5453 5451 5448 5443 5440 5442 5447 5455 5466
5725 5724 5721 5718 5714 5710 5705 5699 5691 5682 5673 5662 5650 5639 5628 5619 5610 5598 5586 5575 5563 5553 5544 5536 5530 5526 5519 5508 5500 5495 5486 5474 5465 5459 5455 5454 5453 5452 5446 5444 5444 5445 5451 5459 5468
5721 5721 5718 5716 5713 5708 5704 5698 5690 5681 5672 5661 5649 5638 5626 5619 5611 5600 5589 5578 5570 5561 5552 5544 5539 5532 5523 5515 5508 5499 5488 5478 5468 5462 5459 5456 5455 5454 5450 5447 5446 5448 5456 5463 5474
5718 5717 5715 5713 5709 5706 5701 5697 5689 5682 5672 5660 5648 5636 5628 5622 5615 5605 5595 5586 5577 5569 5559 5552 5547 5542 5533 5527 5516 5507 5493 5483 5475 5465 5464 5462 5461 5460 5456 5454 5453 5454 5461 5470 5482
5714 5713 5712 5710 5707 5704 5699 5695 5689 5681 5672 5661 5650 5638 5634 5626 5619 5611 5602 5593 5585 5576 5565 5559 5555 5548 5541 5534 5525 5515 5503 5493 5488 5478 5474 5471 5465 5467 5465 5465 5465 5467 5471 5480 5494
5709 5709 5707 5707 5704 5702 5697 5695 5688 5681 5673 5662 5652 5644 5639 5633 5625 5617 5609 5601 5594 5586 5576 5571 5565 5559 5551 5544 5536 5527 5518 5508 5500 5491 5487 5483 5481 5480 5478 5478 5477 5481 5485 5495 5509
5705 5704 5705 5704 5702 5699 5695 5693 5686 5681 5674 5664 5655 5649 5644 5639 5632 5625 5617 5610 5603 5595 5588 5581 5576 5568 5561 5554 5547 5540 5531 5522 5513 5508 5502 5499 5500 5497 5494 5494 5496 5498 5504 5514 5527
5700 5700 5700 5700 5699 5696 5695 5692 5686 5681 5674 5666 5659 5653 5650 5646 5639 5634 5626 5618 5612 5605 5598 5593 5589 5581 5571 5565 5560 5555 5544 5537 5528 5525 5522 5518 5512 5512 5512 5517 5515 5518 5525 5534 5543